Theta_e
327 327 330 336 339 340 342 341 335 340 341 335 338 336 340 339 335 340 338 336 331 334 334 342 334 338 338 336 335 333 333 333 333 331 331 329 328 327 327 326 326 327 329 331 331 330 327 324 323
328 330 335 337 341 342 340 333 338 337 333 331 333 336 339 344 340 338 336 339 338 339 335 343 342 341 340 338 337 335 335 334 334 335 335 336 334 333 331 329 327 328 329 336 339 339 338 331 327
333 336 338 339 341 343 339 332 331 332 331 331 332 333 338 342 338 340 341 340 336 336 337 336 340 340 340 338 336 335 335 335 335 335 336 336 334 335 335 336 340 339 338 338 338 338 339 335 333
336 334 334 341 343 340 337 336 334 333 332 331 332 337 338 337 339 340 339 338 337 338 339 340 336 335 335 338 338 336 335 335 336 336 337 338 338 336 333 336 335 333 339 340 340 340 340 341 334
330 334 339 341 342 339 336 335 334 335 333 334 334 339 341 337 338 336 337 338 340 342 342 343 342 341 336 338 339 337 335 337 337 337 338 340 338 334 335 335 336 336 336 337 338 338 334 333 333
336 335 339 341 341 339 337 335 333 333 333 333 335 339 341 337 341 339 341 340 341 342 342 343 344 342 342 342 338 338 335 335 336 338 337 336 335 334 335 334 333 332 332 332 332 333 333 331 331
336 338 340 340 341 340 338 334 335 339 338 340 337 343 340 339 342 342 339 341 339 339 339 340 342 343 342 342 342 341 339 337 337 338 337 336 335 335 335 333 333 332 332 331 332 333 332 333 332
330 336 340 339 340 341 337 338 341 340 341 338 337 342 341 338 336 339 340 337 335 336 336 338 339 338 340 339 339 342 343 339 339 338 335 332 331 331 331 332 331 331 332 334 331 331 334 334 333
326 338 340 339 339 339 336 341 340 338 339 338 337 338 336 335 338 341 336 334 332 331 333 335 336 336 337 337 337 338 338 337 335 332 330 331 331 329 327 323 323 324 326 329 331 330 331 334 335
326 332 338 335 337 343 342 342 341 339 340 340 340 339 340 341 340 334 333 331 328 326 325 327 334 334 335 334 334 334 333 332 331 328 324 323 321 318 317 316 313 314 316 322 326 328 330 332 335
335 335 337 338 342 341 342 343 340 339 342 343 342 344 341 336 332 330 327 326 324 321 320 322 324 331 332 334 331 329 328 325 321 316 315 315 316 316 316 316 316 317 317 323 326 328 330 332 332
338 336 339 341 341 342 343 339 342 341 342 340 339 340 341 337 332 327 325 323 321 319 319 319 319 325 332 332 329 324 322 320 318 315 314 314 316 316 316 316 316 316 317 319 323 323 327 329 330
342 342 341 340 341 339 338 339 341 342 340 337 339 341 340 335 329 324 322 320 320 320 318 318 322 327 330 328 324 321 319 318 317 317 314 314 315 316 315 315 315 315 315 316 317 318 321 323 324
342 342 342 341 339 338 337 335 337 342 340 340 340 342 341 337 328 324 322 321 321 319 317 317 323 325 323 322 320 321 319 318 318 317 315 315 315 316 315 315 315 315 315 315 315 316 317 318 319
343 346 344 342 340 339 334 339 342 342 340 342 343 343 342 335 326 324 323 322 321 318 316 317 320 322 320 318 320 319 319 319 317 317 316 317 317 316 316 316 316 316 316 316 316 315 314 315 316
337 338 342 340 340 340 337 341 338 339 341 342 344 343 341 336 328 325 323 322 321 318 316 315 317 318 318 317 317 317 318 318 318 317 317 316 316 316 316 316 315 315 315 315 316 316 316 315 316
334 339 340 343 340 342 338 340 339 337 336 342 344 345 341 336 330 326 324 322 321 318 316 315 314 317 317 316 316 317 317 317 317 317 316 316 317 316 315 315 315 314 314 314 314 315 316 316 316
339 336 339 342 341 342 343 341 339 336 336 340 343 347 342 338 333 328 325 323 322 319 315 313 313 314 315 317 317 317 317 317 316 316 316 316 315 315 315 314 314 314 314 314 315 315 316 317 316
329 337 343 342 340 343 347 345 340 340 339 343 342 346 344 340 334 329 327 325 323 320 317 316 313 313 316 316 316 315 315 315 315 316 317 315 314 314 314 313 314 314 314 315 315 314 314 315 315
336 342 343 340 338 342 344 347 344 343 342 341 340 340 344 341 337 331 328 327 325 322 318 318 314 313 314 315 315 315 315 315 316 316 316 314 314 313 313 314 314 314 314 314 314 314 314 314 314
340 341 342 342 341 340 342 344 343 340 340 340 340 337 339 342 340 335 329 327 325 323 320 318 313 313 312 314 315 316 315 316 316 316 314 314 314 313 313 313 313 314 313 313 313 313 314 313 314
337 335 340 341 341 345 339 341 340 341 340 338 342 337 341 342 340 337 332 328 325 323 321 318 313 312 314 314 316 316 316 316 316 315 314 314 314 313 312 312 312 312 312 312 312 312 313 311 311
338 338 338 336 341 343 343 342 339 339 340 339 339 338 339 342 341 338 334 329 326 322 321 318 314 313 313 314 314 316 317 316 315 315 315 315 314 313 312 311 312 312 311 312 311 311 311 310 309
335 336 335 335 337 341 341 343 343 344 339 338 337 338 338 340 341 338 334 328 326 322 320 318 316 315 313 314 315 316 317 317 316 316 315 314 313 313 312 311 311 312 311 311 311 311 311 310 309
335 340 341 341 342 342 342 344 341 339 337 337 338 338 336 337 338 337 332 328 327 323 321 319 317 317 315 315 316 316 317 317 317 316 315 314 313 312 312 311 312 311 310 310 310 310 311 310 310
338 336 336 337 338 336 341 346 342 337 336 335 335 339 337 339 335 335 330 327 327 324 321 319 318 317 316 316 316 315 316 317 317 316 315 313 313 312 312 311 311 311 310 310 310 309 310 310 308
336 334 331 341 340 342 341 342 339 337 339 337 337 339 339 337 333 332 326 326 327 324 322 319 318 317 316 315 315 316 315 317 317 316 315 314 313 312 312 311 311 310 310 309 310 310 310 310 310
332 328 334 336 339 337 340 343 342 342 341 339 337 337 337 334 331 326 325 325 326 325 322 319 318 317 316 315 315 316 315 316 317 315 316 315 314 313 312 310 310 310 310 309 310 310 310 310 310
331 332 332 336 338 336 337 333 342 342 341 341 337 335 334 332 330 326 325 325 326 324 321 319 317 317 316 315 315 316 316 316 316 316 315 315 314 314 312 310 310 310 310 310 310 309 310 310 310
329 331 335 334 338 340 340 338 334 339 338 339 339 333 331 331 328 326 325 324 323 323 320 318 318 317 316 316 315 316 315 314 316 317 317 315 315 314 311 310 310 310 311 311 311 311 309 309 309
Wind_Speed
10 11 7 2 2 5 6 7 6 7 4 5 8 9 12 9 6 5 4 6 6 10 7 4 4 1 0 0 1 3 4 5 5 6 6 6 7 7 8 8 8 8 8 8 8 8 8 8 9
13 10 1 1 5 8 7 10 14 14 12 12 14 14 14 9 7 4 4 9 9 8 5 3 1 1 2 3 4 4 5 6 7 7 9 9 10 10 10 10 11 11 11 10 10 9 9 9 10
13 3 1 4 3 5 6 10 10 6 8 7 4 8 4 7 8 6 8 7 9 7 5 5 5 5 5 5 5 6 6 8 9 10 11 12 11 12 12 11 12 12 13 13 12 12 10 10 10
3 1 3 6 9 4 4 6 7 7 8 8 7 9 7 14 5 8 8 10 9 9 7 8 8 8 7 7 7 7 7 8 10 12 13 12 11 13 13 13 13 12 12 14 14 14 14 12 12
1 0 4 6 8 4 4 8 5 6 4 9 4 7 6 9 10 10 12 13 13 11 11 10 10 8 8 8 7 8 7 8 11 11 13 11 10 11 11 12 12 13 13 13 14 16 17 16 15
1 1 3 4 6 4 6 7 10 12 9 8 9 7 6 7 10 11 15 17 15 14 13 15 15 8 5 6 7 8 8 8 10 10 12 11 9 9 11 11 12 13 13 15 16 16 19 18 17
2 2 3 7 7 4 4 8 10 9 8 11 5 6 6 14 11 14 15 15 16 14 15 16 17 16 8 6 7 7 7 6 8 11 13 12 12 11 13 13 12 12 14 16 18 20 22 22 20
3 3 4 2 6 4 3 5 8 7 6 2 3 5 5 7 11 13 14 16 18 19 18 17 16 15 12 10 8 6 6 6 8 10 12 12 12 13 13 13 13 12 13 14 15 16 20 20 20
1 2 4 5 7 5 3 6 7 4 13 12 8 14 11 11 12 12 13 16 17 18 18 16 15 14 13 10 8 7 8 8 10 12 13 13 13 13 13 14 15 16 17 16 16 15 15 14 14
3 1 3 0 7 6 7 10 7 6 14 15 17 17 17 13 13 15 15 15 16 17 16 16 14 13 11 11 13 13 13 15 16 16 16 13 14 15 16 16 18 18 18 18 19 19 16 12 10
4 3 6 5 12 8 11 5 3 14 7 12 11 13 16 17 15 14 12 12 12 13 15 16 16 14 13 11 12 14 15 16 16 17 17 17 16 16 16 16 18 19 19 16 16 15 13 11 9
8 6 5 9 7 5 5 5 6 3 8 11 11 14 16 13 11 11 13 12 14 16 16 17 17 13 12 10 12 14 14 14 14 17 18 18 15 17 17 18 18 17 17 17 16 15 14 12 11
11 10 9 8 14 16 14 13 4 10 10 8 13 16 13 12 13 13 14 14 15 17 18 17 16 12 10 10 11 13 14 14 14 15 19 19 17 17 17 17 16 16 17 17 17 16 14 13 12
10 19 15 10 12 8 9 8 4 8 5 5 10 10 10 10 13 13 12 13 14 16 17 14 14 13 11 11 11 11 11 11 12 14 17 18 16 17 16 16 16 16 16 16 16 16 15 14 13
18 15 12 8 4 6 6 11 7 6 4 8 6 6 8 9 11 10 11 12 12 14 15 15 12 11 10 10 9 10 10 10 11 12 15 16 16 16 16 16 17 18 17 17 16 16 15 14 14
5 6 5 3 3 3 3 4 2 3 3 7 4 5 7 8 8 9 10 11 9 13 15 15 13 10 10 10 10 9 9 9 10 12 14 17 17 18 17 17 18 20 18 18 17 17 16 15 15
3 2 4 5 2 1 1 8 9 5 1 1 0 4 5 6 6 7 7 7 8 11 13 16 15 10 9 11 11 10 10 10 11 12 15 18 17 18 18 17 18 18 18 17 17 16 15 15 17
6 4 4 5 4 2 5 7 11 7 7 5 5 5 7 6 6 6 6 5 6 10 13 15 12 7 3 5 7 7 8 9 11 13 15 16 16 18 18 17 18 18 18 18 18 16 15 13 16
3 6 8 2 3 2 4 9 13 11 9 7 6 7 8 8 8 8 6 3 4 8 10 11 11 9 7 6 7 7 9 10 11 12 14 16 18 20 19 18 18 18 17 16 17 17 16 14 18
9 14 6 5 2 0 5 4 8 8 6 8 9 9 9 9 9 10 7 4 1 4 4 5 8 7 7 7 6 6 7 7 9 12 14 17 18 19 18 17 17 17 17 17 17 16 16 13 15
6 3 8 5 7 6 5 3 7 5 8 8 10 10 10 12 11 11 9 6 4 2 1 3 6 6 7 7 6 6 6 7 11 13 14 16 17 17 16 16 16 17 16 17 16 16 13 11 12
5 2 9 13 5 1 2 2 6 7 9 10 12 13 12 12 11 12 11 8 7 5 3 1 4 5 4 7 7 9 9 9 9 10 11 14 15 16 17 17 17 16 16 16 16 15 12 10 9
4 10 11 6 4 2 4 4 3 2 10 13 13 13 12 13 14 13 14 11 10 7 5 2 2 4 4 5 7 7 8 8 8 9 11 13 14 14 16 16 15 16 16 15 16 15 12 11 8
18 10 6 4 1 3 2 3 3 6 10 8 12 16 14 14 15 14 12 12 11 8 6 4 3 3 4 3 5 6 5 7 9 10 11 13 13 13 15 16 15 16 16 16 16 14 12 9 7
3 6 2 2 3 2 3 3 7 7 10 8 11 13 12 14 12 12 16 14 13 11 7 6 4 3 4 3 4 5 6 6 7 9 10 12 12 12 14 15 15 15 15 16 15 13 12 12 9
13 2 3 3 2 1 3 5 1 2 5 7 9 12 12 14 11 14 15 14 14 11 8 7 6 4 3 3 4 6 7 6 6 7 8 9 11 12 13 13 13 13 14 15 13 11 12 11 10
6 6 3 5 1 3 1 4 9 3 3 6 7 10 13 15 12 13 15 14 13 11 8 7 7 6 4 3 3 5 7 6 6 7 7 8 9 11 12 11 11 11 12 14 11 11 11 10 11
3 8 2 1 1 2 3 4 4 4 6 8 9 11 12 11 12 12 13 12 12 10 8 8 7 7 6 3 3 5 6 6 5 7 7 8 9 10 9 9 9 9 11 13 12 11 11 11 12
4 3 5 2 2 1 2 3 5 6 6 11 12 12 12 13 13 12 13 13 11 9 8 9 8 9 8 6 4 4 5 6 5 6 7 7 8 8 7 6 6 7 9 10 11 10 10 11 11
1 1 4 3 2 0 2 4 0 3 3 9 11 10 11 11 12 13 13 13 12 12 10 9 9 11 9 8 7 6 6 7 6 6 6 7 8 8 6 5 4 6 7 9 9 10 10 11 11
Wind_Direction
147 140 147 254 85 74 57 27 341 40 56 26 56 70 79 48 33 67 20 56 85 134 134 132 137 154 229 327 20 34 37 36 26 15 4 352 341 334 328 323 319 317 319 324 329 334 336 335 340
143 135 224 24 74 69 61 39 63 82 89 84 77 92 69 63 32 63 36 17 82 106 106 79 49 331 321 340 354 7 13 13 13 9 1 350 342 336 329 321 313 308 305 307 314 318 317 317 322
135 90 335 56 60 71 73 69 77 44 41 47 95 51 39 7 17 19 30 66 84 70 48 16 351 331 327 333 340 352 360 7 9 9 5 357 345 337 330 321 317 311 306 302 300 297 297 296 298
148 102 86 67 75 67 89 85 61 59 52 51 105 77 90 30 18 24 69 74 61 46 23 355 341 328 322 326 335 347 358 8 9 11 6 353 346 340 340 333 321 304 298 298 297 294 292 291 289
75 270 68 87 72 74 81 83 61 26 65 44 64 95 75 27 59 72 80 67 55 36 16 356 330 307 309 316 327 337 351 5 7 8 0 355 347 346 339 333 325 318 309 301 297 292 283 279 279
33 29 104 100 91 87 86 93 92 74 55 70 65 77 63 18 56 73 80 63 52 42 30 25 14 348 289 310 329 337 344 356 2 360 356 357 352 346 340 336 329 322 317 308 301 294 289 282 278
43 54 97 125 117 104 89 85 67 75 68 42 86 74 82 43 57 85 68 56 54 44 39 34 33 33 35 16 358 354 351 352 345 349 353 355 355 349 346 341 341 334 319 309 302 298 290 283 276
116 92 131 90 144 113 80 101 91 69 53 299 360 72 81 75 79 87 68 59 55 48 44 39 35 36 37 28 12 359 357 355 353 0 4 11 13 13 11 9 357 353 338 335 329 317 297 284 278
130 110 141 135 161 140 112 116 73 81 87 76 85 84 89 105 102 87 66 55 47 42 39 32 29 24 26 25 30 35 31 30 32 38 38 36 36 28 20 10 0 354 348 341 332 334 327 304 290
43 73 145 33 130 135 96 93 103 128 107 77 82 85 92 88 73 70 58 48 39 32 26 26 25 27 28 33 38 44 48 53 57 54 50 41 35 22 12 3 354 349 344 341 337 334 338 334 310
61 109 120 81 120 112 94 87 102 131 101 73 86 89 78 79 75 75 70 57 45 34 27 20 16 17 25 37 52 55 62 63 60 54 46 34 27 19 13 7 5 2 355 350 345 348 347 341 326
107 73 90 134 97 89 77 95 118 65 91 102 83 109 94 91 91 83 70 57 44 38 32 22 19 16 31 47 57 62 59 56 53 48 38 32 26 20 16 12 9 9 4 0 355 353 349 348 338
94 104 72 97 95 91 102 79 73 78 86 107 88 87 99 106 98 80 72 63 51 37 26 20 20 34 55 62 58 65 64 59 52 45 38 30 26 19 16 16 14 10 6 1 356 350 350 350 347
110 111 114 106 102 100 81 56 156 83 76 69 66 86 107 106 100 90 77 70 56 37 23 24 30 53 60 60 63 60 59 52 46 42 35 27 24 20 18 15 12 6 2 357 352 348 344 339 338
127 109 116 139 119 112 86 61 89 94 74 68 66 119 105 108 98 95 90 77 62 45 26 29 35 43 52 49 48 45 45 44 42 37 29 25 21 17 18 11 7 360 355 355 354 350 346 338 336
129 145 140 134 160 72 219 146 137 143 55 51 63 144 132 118 114 110 93 79 60 56 42 39 42 33 40 44 43 40 42 47 38 27 21 18 16 14 13 9 4 358 354 352 350 346 342 342 342
195 167 142 158 247 151 4 147 175 201 244 24 63 122 158 139 143 110 100 90 70 57 45 35 29 26 38 43 49 53 54 42 28 19 15 13 16 14 12 6 0 359 356 355 351 345 342 339 341
200 188 160 179 165 149 101 145 162 187 210 211 223 185 186 182 169 153 133 110 87 60 43 31 18 1 6 23 37 36 31 25 22 22 16 14 11 10 10 3 0 1 359 359 359 353 350 342 342
229 147 125 93 65 116 107 170 177 186 199 215 221 204 200 200 185 177 161 151 86 58 40 23 11 20 25 21 14 9 14 16 18 18 15 13 10 7 6 5 5 3 2 358 360 1 358 357 353
151 131 113 110 55 154 145 170 208 211 216 220 227 212 206 199 195 197 183 190 119 79 39 18 15 20 30 35 32 23 10 7 15 15 14 10 8 7 7 6 4 2 360 1 2 5 1 360 4
123 135 165 136 119 72 150 217 218 216 225 228 232 234 212 204 209 202 198 203 199 171 203 15 8 22 41 44 24 20 22 21 15 11 9 4 5 5 5 5 2 0 0 358 359 360 2 352 359
154 202 142 134 178 156 312 297 235 216 237 228 219 206 204 203 212 212 205 203 214 212 196 295 351 18 33 41 36 37 31 16 2 355 357 2 2 3 4 3 2 1 0 358 357 357 358 357 358
97 138 119 122 91 168 195 260 127 224 248 239 226 215 207 204 208 209 206 209 211 201 193 216 323 359 8 29 35 33 25 11 359 357 355 357 359 4 4 4 359 360 360 356 357 358 3 15 12
135 114 87 98 113 267 127 276 203 186 222 237 220 221 214 209 209 208 201 199 204 197 194 205 247 313 353 8 15 17 5 0 3 358 358 359 1 2 2 358 1 2 0 359 0 2 1 3 5
154 153 131 241 216 261 121 234 274 194 210 225 215 211 205 205 208 201 190 195 201 197 202 213 231 285 332 320 348 357 348 340 347 354 357 360 3 4 359 360 3 2 2 1 1 1 1 358 358
177 222 267 273 238 76 159 242 7 225 273 240 211 200 188 194 206 197 197 195 200 194 202 219 228 251 293 329 341 347 345 336 339 346 350 356 358 359 356 360 0 1 1 0 358 0 3 359 8
175 212 90 106 13 242 228 271 266 238 219 208 187 185 190 199 193 195 188 196 194 191 203 223 236 242 270 310 328 339 345 342 339 344 343 346 352 353 355 359 1 5 7 6 3 2 3 9 9
221 132 190 131 157 294 227 281 276 258 219 204 205 207 205 202 183 186 188 191 189 188 203 220 231 244 249 267 300 322 337 339 331 339 335 338 343 348 351 358 1 3 5 8 12 12 10 12 11
153 170 73 91 317 265 273 297 216 253 232 215 216 209 207 194 186 188 188 186 182 187 204 220 230 234 245 253 272 297 319 330 320 321 326 332 338 338 339 348 355 355 0 3 7 11 10 9 8
111 165 166 245 207 90 314 274 199 227 260 227 223 217 211 201 193 192 188 174 176 193 204 224 236 234 242 247 260 273 293 311 314 308 312 317 322 327 322 325 330 334 340 344 348 357 2 1 358